INMARSAT 3-F3

Last updated on Nov. 18, 2019, 4:21 a.m. UTC

1 24674U 96070A   19320.73365595  .00000045  00000-0  00000-0 0  9992
2 24674   5.1720  67.3803 0005009 168.3352 262.0465  1.00273718 83868
UTC
Height (km)
Latitude
Longitude
Inclination
Orbital Period
UTC large
Height (km)
Speed (km/s)
/
Latitude / Longitude
Inclination (degrees)
Orbital Period (minutes)
Azimuth
Elevation
Range (km)
Doppler Factor
iOS Compass Heading
iOS Angle

Next 30 passes for location: Hong Kong

Rise time Rise Azimuth (degrees) Set time Set Azimuth (degrees) Duration Max altitude (degrees)

No matching passes for this satellites